Location: Okie-Tex Star Party
(36.8978°N, 102.9520°W)
Time: 22:29:20
(UTC-05:00)

Amateur Radio Satellites - All Passes

Search period start: 16 September 2014 21:59
Search period end: 17 September 2014 21:59
Location: Okie-Tex Star Party, 36.8978°N, 102.9520°W

Satellite Date Start Highest point End Downlink Frequencies (MHz)
Time Altitude Azimuth
FUNcube-1 16 Sep 22:20:28 22:22:49 14° 65° (ENE) 22:25:13 145.950 - 145.970 MHz USB
KITSAT 1 16 Sep 22:34:06 22:41:18 35° 310° (NW) 22:48:32 435.175 FM
Oscar 11 16 Sep 22:37:07 22:41:23 57° 75° (ENE) 22:45:41 145.825 FM, Beacon 2401.500 USB
Sapphire 16 Sep 22:39:51 22:44:35 30° 54° (NE) 22:49:18 437.095 MHz 1200 baud AX-25 AFSK
HO-68 16 Sep 22:45:24 22:52:14 48° 260° (W) 22:59:06 435.675 MHz FM
UKube-1 16 Sep 22:50:37 22:54:54 65° 258° (WSW) 22:59:13 145.840 MHz, 145.915 MHz
SO-50 16 Sep 23:00:17 23:02:45 15° 108° (ESE) 23:05:14 436.795 FM
PCSat 16 Sep 23:06:53 23:12:12 54° 59° (ENE) 23:17:29 145.825 MHz
FUNcube-1 16 Sep 23:54:35 23:58:45 47° 261° (W) 00:03:04 145.950 - 145.970 MHz USB
Oscar 11 17 Sep 00:16:54 00:17:53 11° 269° (W) 00:18:53 145.825 FM, Beacon 2401.500 USB
Sapphire 17 Sep 00:23:06 00:28:00 35° 251° (WSW) 00:32:52 437.095 MHz 1200 baud AX-25 AFSK
SO-50 17 Sep 00:38:29 00:42:49 50° 304° (NW) 00:47:16 436.795 FM
PCSat 17 Sep 00:51:32 00:55:08 18° 255° (WSW) 00:58:43 145.825 MHz
UOSAT-12 17 Sep 00:54:27 00:57:35 18° 109° (ESE) 01:00:46 437.025 FM, 437.400 FM
Oscar 19 17 Sep 02:07:34 02:09:20 12° 90° (E) 02:11:05 437.125 CW, 437.150 USB
UOSAT-12 17 Sep 02:32:58 02:37:22 44° 305° (NW) 02:41:52 437.025 FM, 437.400 FM
Saudisat 1A 17 Sep 02:38:03 02:39:30 11° 43° (NE) 02:40:58 436.775 MHz
Oscar 16 17 Sep 02:43:31 02:48:02 30° 96° (E) 02:52:31 437.025 USB, Beacon 2401.1428
AO-Echo 17 Sep 03:20:14 03:24:32 31° 97° (E) 03:28:55 ?
ITAMSAT 1 17 Sep 03:20:48 03:25:13 28° 96° (E) 03:29:37 435.822 SSB
Uribyol 2 17 Sep 03:25:35 03:30:16 33° 97° (E) 03:34:56 436.500 FM
TMSAT-1 17 Sep 03:32:58 03:34:29 11° 90° (E) 03:36:00 436.925 FM
JAS-1B 17 Sep 03:38:57 03:44:27 45° 99° (E) 03:49:53 435.800 - 435.900 CW/SSB
Oscar 19 17 Sep 03:43:59 03:49:08 71° 285° (WNW) 03:54:15 437.125 CW, 437.150 USB
Oscar 10/S400 17 Sep 03:53:08 05:07:05 32° 242° (WSW) 08:55:07 145.825 - 145.975 CW/USB, Beacon 145.810 USB
AO-27 17 Sep 03:54:28 03:59:38 61° 101° (ESE) 04:04:47 436.795 MHz FM
RS-15 17 Sep 04:00:53 04:07:50 19° 100° (E) 04:14:40 29.354 - 29.394 USB, Beacon 29.352 USB
PANSAT 17 Sep 04:08:05 04:10:37 17° 167° (SSE) 04:13:09 not established
Saudisat 1A 17 Sep 04:15:16 04:19:42 87° 240° (WSW) 04:24:06 436.775 MHz
Oscar 16 17 Sep 04:22:51 04:27:17 29° 292° (WNW) 04:31:41 437.025 USB, Beacon 2401.1428
OPAL 17 Sep 04:24:10 04:27:07 15° 61° (ENE) 04:30:03 ?
Gurwin Techsat 1B 17 Sep 04:30:40 04:35:57 63° 101° (ESE) 04:41:11 435.225 FM
KITSAT 1 17 Sep 04:34:21 04:39:57 20° 40° (NE) 04:45:32 435.175 FM
ISS 17 Sep 04:35:49 04:39:08 85° 139° (SE) 04:42:29 145.800 FM
AO-7 17 Sep 04:42:47 04:47:39 17° 92° (E) 04:52:28 29.400 - 29.500 MHz
AO-Echo 17 Sep 04:59:15 05:03:09 25° 291° (WNW) 05:07:08 ?
ITAMSAT 1 17 Sep 05:00:05 05:04:40 32° 291° (WNW) 05:09:14 435.822 SSB
Uribyol 2 17 Sep 05:05:14 05:09:35 27° 292° (WNW) 05:13:55 436.500 FM
TMSAT-1 17 Sep 05:09:37 05:14:55 76° 285° (WNW) 05:20:12 436.925 FM
JAS-1B 17 Sep 05:30:38 05:34:47 21° 297° (WNW) 05:38:51 435.800 - 435.900 CW/SSB
AO-27 17 Sep 05:35:37 05:38:36 16° 297° (WNW) 05:41:34 436.795 MHz FM
PANSAT 17 Sep 05:47:10 05:50:15 23° 180° (S) 05:53:19 not established
OPAL 17 Sep 06:00:18 06:05:24 64° 256° (WSW) 06:10:35 ?
Uosat F 17 Sep 06:05:59 06:10:59 64° 102° (ESE) 06:15:57 435.120 FM
RS-15 17 Sep 06:07:29 06:18:37 90° 119° (ESE) 06:29:35 29.354 - 29.394 USB, Beacon 29.352 USB
Gurwin Techsat 1B 17 Sep 06:12:20 06:15:20 15° 297° (WNW) 06:18:20 435.225 FM
ISS 17 Sep 06:14:14 06:16:15 15° 336° (NNW) 06:18:15 145.800 FM
KITSAT 1 17 Sep 06:28:30 06:36:37 82° 61° (ENE) 06:44:41 435.175 FM
AO-7 17 Sep 06:32:57 06:41:17 87° 288° (WNW) 06:49:34 29.400 - 29.500 MHz
STRAND 1 17 Sep 06:39:07 06:42:05 16° 64° (ENE) 06:45:04 ?
PANSAT 17 Sep 07:27:22 07:29:52 17° 193° (SSW) 07:32:23 not established
Hamsat 17 Sep 07:27:33 07:31:42 49° 99° (E) 07:35:46 145.90 MHz
JAS-2 17 Sep 07:30:45 07:36:41 61° 102° (ESE) 07:43:23 435.800 - 435.900 CW/SSB, 435.910 FM
SO-50 17 Sep 07:34:03 07:35:23 11° 41° (NE) 07:36:42 436.795 FM
Uosat F 17 Sep 07:46:40 07:49:11 14° 297° (WNW) 07:51:42 435.120 FM
STRAND 1 17 Sep 08:15:47 08:20:46 57° 259° (W) 08:25:47 ?
RS-15 17 Sep 08:23:38 08:32:31 27° 323° (NW) 08:41:27 29.354 - 29.394 USB, Beacon 29.352 USB
KITSAT 1 17 Sep 08:25:57 08:31:01 18° 258° (WSW) 08:36:05 435.175 FM
AO-7 17 Sep 08:27:46 08:32:54 18° 307° (NW) 08:38:04 29.400 - 29.500 MHz
Hamsat 17 Sep 09:05:18 09:07:10 13° 295° (WNW) 09:09:02 145.90 MHz
SO-50 17 Sep 09:11:54 09:16:44 76° 59° (ENE) 09:21:36 436.795 FM
SO-67 17 Sep 09:15:42 09:19:04 51° 284° (WNW) 09:22:24 435.3500 MHz FM
JAS-2 17 Sep 09:17:14 09:21:23 20° 294° (WNW) 09:25:52 435.800 - 435.900 CW/SSB, 435.910 FM
UOSAT-12 17 Sep 09:26:41 09:28:21 12° 41° (NE) 09:30:00 437.025 FM, 437.400 FM
MaSat-1 17 Sep 10:05:25 10:10:25 88° 293° (WNW) 10:15:28 437.345 MHz
HO-68 17 Sep 10:15:28 10:22:03 38° 98° (E) 10:28:35 435.675 MHz FM
Oscar 11 17 Sep 10:29:04 10:30:54 12° 92° (E) 10:32:44 145.825 FM, Beacon 2401.500 USB
UKube-1 17 Sep 10:41:38 10:45:13 25° 96° (E) 10:48:47 145.840 MHz, 145.915 MHz
RS-15 17 Sep 10:45:32 10:50:32 14° 359° (N) 10:55:34 29.354 - 29.394 USB, Beacon 29.352 USB
SO-50 17 Sep 10:55:22 10:56:40 11° 253° (WSW) 10:57:58 436.795 FM
UOSAT-12 17 Sep 11:04:30 11:09:14 84° 60° (ENE) 11:13:53 437.025 FM, 437.400 FM
ISS 17 Sep 11:06:39 11:09:48 38° 35° (NE) 11:12:56 145.800 FM
FUNcube-1 17 Sep 11:45:54 11:50:16 40° 98° (E) 11:54:33 145.950 - 145.970 MHz USB
MaSat-1 17 Sep 11:45:59 11:47:53 12° 310° (NW) 11:49:47 437.345 MHz
Oscar 11 17 Sep 12:03:08 12:07:20 49° 286° (WNW) 12:11:30 145.825 FM, Beacon 2401.500 USB
HO-68 17 Sep 12:03:11 12:09:39 38° 295° (WNW) 12:16:08 435.675 MHz FM
UKube-1 17 Sep 12:17:44 12:21:19 26° 291° (WNW) 12:24:54 145.840 MHz, 145.915 MHz
ISS 17 Sep 12:43:55 12:46:19 18° 230° (SW) 12:48:41 145.800 FM
RS-15 17 Sep 12:59:50 13:08:42 26° 36° (NE) 13:17:45 29.354 - 29.394 USB, Beacon 29.352 USB
Sapphire 17 Sep 13:19:11 13:24:12 41° 110° (ESE) 13:29:16 437.095 MHz 1200 baud AX-25 AFSK
Oscar 19 17 Sep 13:21:57 13:24:51 15° 63° (ENE) 13:27:46 437.125 CW, 437.150 USB
FUNcube-1 17 Sep 13:23:09 13:26:19 19° 293° (WNW) 13:29:27 145.950 - 145.970 MHz USB
PCSat 17 Sep 13:46:02 13:51:25 80° 115° (ESE) 13:56:52 145.825 MHz
Oscar 16 17 Sep 13:58:13 14:02:53 35° 70° (ENE) 14:07:35 437.025 USB, Beacon 2401.1428
Oscar 10/S400 17 Sep 14:18:01 14:34:47 18° 153° (SSE) 14:46:29 145.825 - 145.975 CW/USB, Beacon 145.810 USB
JAS-1B 17 Sep 14:19:35 14:27:36 41° 69° (ENE) 14:34:29 435.800 - 435.900 CW/SSB
AO-Echo 17 Sep 14:31:24 14:35:35 31° 70° (ENE) 14:39:44 ?
ITAMSAT 1 17 Sep 14:36:40 14:41:15 33° 69° (ENE) 14:45:51 435.822 SSB
Uribyol 2 17 Sep 14:41:17 14:46:03 40° 70° (ENE) 14:50:51 436.500 FM
TMSAT-1 17 Sep 14:50:57 14:54:01 16° 63° (ENE) 14:57:05 436.925 FM
Oscar 19 17 Sep 14:58:30 15:03:38 62° 259° (W) 15:08:48 437.125 CW, 437.150 USB
Sapphire 17 Sep 15:03:16 15:07:44 26° 307° (NW) 15:12:15 437.095 MHz 1200 baud AX-25 AFSK
AO-27 17 Sep 15:10:21 15:15:30 74° 75° (ENE) 15:20:40 436.795 MHz FM
RS-15 17 Sep 15:11:39 15:22:51 85° 60° (ENE) 15:34:32 29.354 - 29.394 USB, Beacon 29.352 USB
PCSat 17 Sep 15:32:22 15:35:29 15° 313° (NW) 15:38:36 145.825 MHz
Oscar 16 17 Sep 15:38:03 15:42:15 25° 265° (W) 15:46:29 437.025 USB, Beacon 2401.1428
AO-7 17 Sep 15:39:40 15:45:31 22° 55° (NE) 15:51:20 29.400 - 29.500 MHz
Gurwin Techsat 1B 17 Sep 15:49:27 15:54:45 79° 75° (ENE) 16:00:04 435.225 FM
JAS-1B 17 Sep 16:09:39 16:18:01 42° 261° (W) 16:25:15 435.800 - 435.900 CW/SSB
AO-Echo 17 Sep 16:10:36 16:14:22 23° 264° (W) 16:18:06 ?
ITAMSAT 1 17 Sep 16:16:29 16:20:44 26° 264° (W) 16:25:01 435.822 SSB
Uribyol 2 17 Sep 16:21:43 16:25:37 22° 265° (W) 16:29:34 436.500 FM
TMSAT-1 17 Sep 16:28:10 16:33:23 61° 259° (W) 16:38:38 436.925 FM
AO-27 17 Sep 16:54:04 16:55:30 11° 269° (W) 16:56:56 436.795 MHz FM
Uosat F 17 Sep 17:16:57 17:21:55 70° 74° (ENE) 17:26:53 435.120 FM
RS-15 17 Sep 17:26:02 17:33:54 23° 258° (WSW) 17:42:01 29.354 - 29.394 USB, Beacon 29.352 USB
AO-7 17 Sep 17:29:02 17:37:21 81° 253° (WSW) 17:45:42 29.400 - 29.500 MHz
Gurwin Techsat 1B 17 Sep 17:34:09 17:35:15 11° 270° (W) 17:36:21 435.225 FM
JAS-2 17 Sep 17:43:58 17:47:09 16° 64° (ENE) 17:50:18 435.800 - 435.900 CW/SSB, 435.910 FM
OPAL 17 Sep 18:12:45 18:17:38 41° 101° (E) 18:22:25 ?
Hamsat 17 Sep 18:18:48 18:22:30 27° 71° (ENE) 18:26:11 145.90 MHz
Saudisat 1A 17 Sep 18:19:36 18:23:43 41° 115° (ESE) 18:27:52 436.775 MHz
Uosat F 17 Sep 18:59:40 19:01:08 11° 269° (W) 19:02:37 435.120 FM
KITSAT 1 17 Sep 19:04:21 19:07:31 13° 99° (E) 19:10:40 435.175 FM
JAS-2 17 Sep 19:26:37 19:31:53 52° 260° (W) 19:36:56 435.800 - 435.900 CW/SSB, 435.910 FM
AO-7 17 Sep 19:27:38 19:31:11 13° 270° (W) 19:34:45 29.400 - 29.500 MHz
SO-67 17 Sep 19:46:26 19:49:30 31° 73° (ENE) 19:52:35 435.3500 MHz FM
OPAL 17 Sep 19:52:16 19:56:12 22° 296° (WNW) 20:00:05 ?
Hamsat 17 Sep 19:54:57 19:58:23 23° 265° (W) 20:01:51 145.90 MHz
Saudisat 1A 17 Sep 20:00:11 20:03:27 20° 311° (NW) 20:06:44 436.775 MHz
MaSat-1 17 Sep 20:01:40 20:05:24 59° 250° (WSW) 20:08:33 437.345 MHz
STRAND 1 17 Sep 20:28:35 20:33:39 58° 101° (E) 20:38:42 ?
HO-68 17 Sep 20:42:52 20:48:11 23° 60° (ENE) 20:53:30 435.675 MHz FM
KITSAT 1 17 Sep 20:53:32 21:01:36 79° 116° (ESE) 21:09:43 435.175 FM
SO-67 17 Sep 21:21:17 21:22:36 12° 267° (W) 21:23:56 435.3500 MHz FM
UKube-1 17 Sep 21:35:49 21:38:38 17° 66° (ENE) 21:41:27 145.840 MHz, 145.915 MHz
